Weather History for Danville, IL

Change the Weather History Date:

Thursday, November 3, 2011

  Actual Average (KLAF) Record (KLAF)
Temperature  
Mean Temperature 48 °F 48 °F  
Max Temperature 51 °F 58 °F 77 °F (1987)
Min Temperature 44 °F 39 °F 17 °F (1991)
Degree Days  
Heating Degree Days 18 17  
Month to date heating degree days 49  
Since 1 July heating degree days 483  
Cooling Degree Days 0 0  
Month to date cooling degree days 0  
Year to date cooling degree days 982  
Moisture  
Dew Point 43 °F    
Average Humidity 84    
Maximum Humidity 100    
Minimum Humidity 62    
Precipitation  
Precipitation 0.00 in 0.10 in 0.69 in (1948)
Month to date precipitation 0.28  
Year to date precipitation 31.38  
Sea Level Pressure  
Sea Level Pressure 29.89 in    
Wind  
Wind Speed 9 mph (ENE)    
Max Wind Speed 20 mph    
Max Gust Speed 26 mph    
Visibility 8 miles    
Events Rain    
T = Trace of Precipitation, MM = Missing Value Source: NWS Daily Summary

Daily Weather History Graph

Daily Weather History Graph

Search for Another Location

Airport:

Trip Planner

Search our weather history database for the weather conditions in past years. The results will help you decide how hot, cold, wet, or windy it might be!

Date:

Astronomy

Nov. 03, 2011 Rise Set
Actual Time 7:21 AM CDT 5:45 PM CDT
Civil Twilight 6:53 AM CDT 6:13 PM CDT
Nautical Twilight 6:21 AM CDT 6:45 PM CDT
Astronomical Twilight 5:49 AM CDT 7:17 PM CDT
Moon 2:09 PM CDT (11/3) 12:33 AM CDT (11/3)
Length of Visible Light 11h 20m
Length of Day
10h 23m
First Quarter, 60% of the Moon is Illuminated
Nov 3
First Quarter
Nov 10
Full
Nov 18
Last Quarter
Nov 25
New
Dec 2
First Quarter

Hourly Weather History & Observations

Time (CDT) Temp. Windchill Dew Point Humidity Pressure Visibility Wind Dir Wind Speed Gust Speed Precip Events Conditions
12:15 AM 51.8 °F - 41.0 °F 67% 29.94 in 10.0 mi SSE 5.8 mph - N/A   Clear
12:35 AM 51.8 °F - 41.0 °F 67% 29.94 in 10.0 mi SSE 8.1 mph - N/A   Clear
1:15 AM 50.0 °F - 39.2 °F 66% 29.93 in 10.0 mi SSE 4.6 mph - N/A   Clear
1:35 AM 48.2 °F - 39.2 °F 71% 29.92 in 10.0 mi SE 6.9 mph - N/A   Clear
1:55 AM 50.0 °F - 39.2 °F 66% 29.91 in 10.0 mi SE 10.4 mph - N/A   Clear
2:15 AM 48.2 °F - 39.2 °F 71% 29.91 in 10.0 mi SSE 4.6 mph - N/A   Clear
2:35 AM 48.2 °F - 39.2 °F 71% 29.91 in 10.0 mi SSE 3.5 mph - N/A   Clear
2:55 AM 48.2 °F - 39.2 °F 71% 29.90 in 10.0 mi SE 5.8 mph - N/A   Clear
3:15 AM 50.0 °F - 39.2 °F 66% 29.90 in 10.0 mi SE 4.6 mph - N/A   Clear
3:35 AM 50.0 °F - 39.2 °F 66% 29.90 in 10.0 mi SE 4.6 mph - N/A   Clear
4:15 AM 50.0 °F - 39.2 °F 66% 29.88 in 10.0 mi SE 6.9 mph - N/A   Clear
4:35 AM 50.0 °F - 39.2 °F 66% 29.88 in 10.0 mi SE 8.1 mph - N/A   Clear
5:15 AM 50.0 °F - 39.2 °F 66% 29.87 in 10.0 mi SE 8.1 mph - N/A   Mostly Cloudy
5:35 AM 50.0 °F - 41.0 °F 71% 29.89 in 10.0 mi NNW 3.5 mph - N/A   Mostly Cloudy
5:55 AM 51.8 °F - 39.2 °F 62% 29.88 in 10.0 mi NE 6.9 mph - N/A   Overcast
6:15 AM 51.8 °F - 39.2 °F 62% 29.88 in 10.0 mi NE 4.6 mph - N/A   Overcast
6:35 AM 51.8 °F - 41.0 °F 67% 29.88 in 10.0 mi ENE 5.8 mph - N/A   Overcast
6:55 AM 50.0 °F - 41.0 °F 71% 29.86 in 10.0 mi ENE 9.2 mph - N/A   Overcast
7:15 AM 50.0 °F - 41.0 °F 71% 29.85 in 10.0 mi ENE 6.9 mph - N/A   Overcast
7:35 AM 50.0 °F - 41.0 °F 71% 29.85 in 10.0 mi East 9.2 mph - N/A   Mostly Cloudy
7:55 AM 50.0 °F - 41.0 °F 71% 29.84 in 10.0 mi East 11.5 mph - N/A   Mostly Cloudy
8:15 AM 50.0 °F - 41.0 °F 71% 29.86 in 10.0 mi East 10.4 mph - N/A Rain Rain
8:35 AM 46.4 °F 41.1 °F 42.8 °F 87% 29.85 in 7.0 mi East 11.5 mph - N/A Rain Rain
8:55 AM 46.4 °F 41.5 °F 42.8 °F 87% 29.82 in 5.0 mi East 10.4 mph - N/A Rain Rain
9:15 AM 46.4 °F 41.1 °F 42.8 °F 87% 29.82 in 10.0 mi East 11.5 mph - N/A Rain Light Rain
9:35 AM 46.4 °F 42.4 °F 42.8 °F 87% 29.85 in 10.0 mi ESE 8.1 mph - N/A Rain Light Rain
9:55 AM 46.4 °F 42.9 °F 42.8 °F 87% 29.84 in 10.0 mi ESE 6.9 mph - N/A Rain Light Rain
10:15 AM 46.4 °F 42.4 °F 42.8 °F 87% 29.84 in 10.0 mi East 8.1 mph - N/A Rain Light Rain
10:35 AM 46.4 °F 41.5 °F 44.6 °F 93% 29.84 in 10.0 mi East 10.4 mph - N/A Rain Light Rain
10:55 AM 46.4 °F 41.5 °F 44.6 °F 93% 29.84 in 10.0 mi East 10.4 mph - N/A   Overcast
11:15 AM 46.4 °F 41.1 °F 44.6 °F 93% 29.84 in 10.0 mi East 11.5 mph - N/A Rain Light Rain
11:35 AM 46.4 °F 41.9 °F 44.6 °F 93% 29.84 in 5.0 mi East 9.2 mph - N/A Rain Rain
11:55 AM 46.4 °F 41.9 °F 44.6 °F 93% 29.83 in 4.0 mi East 9.2 mph - N/A Rain Rain
12:15 PM 46.4 °F 42.4 °F 46.4 °F 100% 29.82 in 4.0 mi East 8.1 mph - N/A Rain Rain
12:35 PM 46.4 °F 41.9 °F 46.4 °F 100% 29.83 in 4.0 mi East 9.2 mph - N/A Rain Rain
12:55 PM 46.4 °F 42.4 °F 46.4 °F 100% 29.83 in 3.0 mi ENE 8.1 mph - N/A Rain Rain
1:15 PM 46.4 °F 41.9 °F 46.4 °F 100% 29.82 in 2.5 mi NNE 9.2 mph - N/A Rain Rain
1:35 PM 46.4 °F 41.1 °F 44.6 °F 93% 29.83 in 3.0 mi NNE 11.5 mph - N/A Rain Rain
1:55 PM 46.4 °F 41.1 °F 44.6 °F 93% 29.83 in 4.0 mi NE 11.5 mph - N/A Rain Rain
2:15 PM 46.4 °F 41.1 °F 44.6 °F 93% 29.83 in 4.0 mi NE 11.5 mph - N/A Rain Rain
2:35 PM 46.4 °F 41.1 °F 44.6 °F 93% 29.83 in 5.0 mi NE 11.5 mph 17.3 mph N/A Rain Light Rain
2:55 PM 46.4 °F 40.7 °F 44.6 °F 93% 29.84 in 4.0 mi NE 12.7 mph 18.4 mph N/A Rain Light Rain
3:15 PM 46.4 °F 39.8 °F 44.6 °F 93% 29.85 in 4.0 mi NNE 16.1 mph 19.6 mph N/A Rain Light Rain
3:35 PM 46.4 °F 39.8 °F 44.6 °F 93% 29.85 in 4.0 mi NE 16.1 mph - N/A Rain Rain
3:55 PM 46.4 °F 40.7 °F 44.6 °F 93% 29.86 in 4.0 mi NE 12.7 mph 23.0 mph N/A Rain Rain
4:15 PM 46.4 °F 40.4 °F 44.6 °F 93% 29.87 in 5.0 mi NE 13.8 mph 18.4 mph N/A Rain Light Rain
4:35 PM 46.4 °F 41.5 °F 44.6 °F 93% 29.87 in 5.0 mi ENE 10.4 mph 17.3 mph N/A Rain Light Rain
4:55 PM 46.4 °F 41.5 °F 44.6 °F 93% 29.88 in 5.0 mi NE 10.4 mph - N/A   Overcast
5:15 PM 48.2 °F - 44.6 °F 87% 29.89 in 5.0 mi NNE 12.7 mph 19.6 mph N/A   Overcast
5:35 PM 48.2 °F - 44.6 °F 87% 29.90 in 5.0 mi NNE 17.3 mph 24.2 mph N/A   Overcast
5:55 PM 46.4 °F 39.5 °F 44.6 °F 93% 29.92 in 7.0 mi NNE 17.3 mph 23.0 mph N/A Rain Light Rain
6:15 PM 46.4 °F 39.5 °F 44.6 °F 93% 29.93 in 5.0 mi NNE 17.3 mph - N/A Rain Rain
6:35 PM 46.4 °F 39.5 °F 44.6 °F 93% 29.94 in 5.0 mi NNE 17.3 mph - N/A Rain Rain
6:55 PM 46.4 °F 39.8 °F 44.6 °F 93% 29.95 in 4.0 mi NNE 16.1 mph - N/A Rain Heavy Rain
7:15 PM 46.4 °F 40.1 °F 44.6 °F 93% 29.97 in 5.0 mi NNE 15.0 mph 23.0 mph N/A Rain Rain
7:35 PM 46.4 °F 39.2 °F 44.6 °F 93% 29.98 in 7.0 mi NNE 18.4 mph - N/A Rain Light Rain
7:55 PM 46.4 °F 39.2 °F 44.6 °F 93% 29.98 in 7.0 mi North 18.4 mph - N/A   Overcast
8:15 PM 46.4 °F 39.0 °F 44.6 °F 93% 30.00 in 10.0 mi North 19.6 mph 26.5 mph N/A   Overcast
8:35 PM 46.4 °F 39.0 °F 44.6 °F 93% 30.00 in 10.0 mi North 19.6 mph 25.3 mph N/A   Overcast
8:55 PM 46.4 °F 39.0 °F 44.6 °F 93% 30.00 in 10.0 mi NNE 19.6 mph 24.2 mph N/A   Overcast
9:15 PM 46.4 °F 39.5 °F 42.8 °F 87% 30.02 in 10.0 mi NNE 17.3 mph 24.2 mph N/A   Overcast
9:35 PM 44.6 °F 36.6 °F 42.8 °F 93% 30.03 in 10.0 mi North 19.6 mph - N/A   Overcast
9:55 PM 44.6 °F 37.4 °F 42.8 °F 93% 30.04 in 10.0 mi North 16.1 mph 24.2 mph N/A   Overcast
10:15 PM 44.6 °F 36.9 °F 42.8 °F 93% 30.04 in 10.0 mi NNE 18.4 mph 26.5 mph N/A   Overcast
10:55 PM 44.6 °F 37.4 °F 42.8 °F 93% 30.05 in 10.0 mi NNE 16.1 mph 21.9 mph N/A   Mostly Cloudy
11:15 PM 44.6 °F 37.4 °F 42.8 °F 93% 30.05 in 10.0 mi NNE 16.1 mph - N/A   Mostly Cloudy
11:35 PM 44.6 °F 37.2 °F 42.8 °F 93% 30.06 in 10.0 mi NNE 17.3 mph 21.9 mph N/A   Overcast